Regional Weather Roundup
Issued by NWS

Home | Current Version | Previous Version | Text Only | Print | Product List | Glossary Off
Versions: 1 2 3 4 5 6 7 8 9 10 11 12 13 14 15 16 17 18 19 20 21 22 23 24 25 26 27 28 29 30 31 32 33 34 35 36 37 38 39 40 41 42 43 44 45 46 47 48 49 50

000
ASUS43 KLOT 272212
RWRIL

ILLINOIS REGIONAL WEATHER ROUNDUP
NATIONAL WEATHER SERVICE CHICAGO/ROMEOVILLE IL
400 PM CST MON FEB 27 2017

NOTE: "FAIR" INDICATES FEW OR NO CLOUDS BELOW 12,000 FEET WITH NO
SIGNIFICANT WEATHER AND/OR OBSTRUCTIONS TO VISIBILITY.

* THESE STATIONS ARE NOT UNDER NWS QUALITY CONTROL. THEY ALSO MAY NOT
  REPORT WEATHER SUCH AS PRECIPITATION OR FOG.

ILZ001-002-007-009-015-016-024-272300-
NORTHWEST ILLINOIS

CITY           SKY/WX    TMP DP  RH WIND       PRES   REMARKS
MOLINE         CLOUDY    56  31  38 S9        29.99F
STERLING*      PTSUNNY   53  32  44 SE3       30.03F
$$

ILZ003-004-008-010-011-017-018-272300-
NORTH CENTRAL ILLINOIS

CITY           SKY/WX    TMP DP  RH WIND       PRES   REMARKS
ROCKFORD       PTSUNNY   53  33  46 S12       30.06F
FREEPORT*      SUNNY     50  32  50 S9        30.04F
ROCHELLE*      MOSUNNY   53  35  50 S8        30.05F
DE KALB*       PTSUNNY   50  33  51 SW5       30.07S
PERU*          SUNNY     54  30  40 SW8       30.05S
$$

ILZ005-006-012>014-019>023-272300-
NORTHEAST ILLINOIS

CITY           SKY/WX    TMP DP  RH WIND       PRES   REMARKS
CHICAGO-OHARE  PTSUNNY   54  32  43 SW10      30.07F
CHICAGO-MIDWAY PTSUNNY   54  31  41 S10G21    30.07F
AURORA         PTSUNNY   55  33  43 S9        30.06F
LANSING*       SUNNY     54  36  50 S14       30.09F
JOLIET*        PTSUNNY   55  34  44 SW7       30.07F
WAUKEGAN       PTSUNNY   44  35  70 SE10      30.08S
DUPAGE AIRPORT PTSUNNY   53  31  42 S9        30.06F
KANKAKEE*      MOSUNNY   55  34  45 S9        30.08F
WHEELING       PTSUNNY   52  31  44 SW9       30.08F
MORRIS*        MOSUNNY   56  32  40 S7        30.05F
ROMEOVILLE*    PTSUNNY   54  37  52 SW9       30.07S
NORTHERLY ISL    N/A     42  34  73 CALM        N/A
$$

LMZ740>746-272300-
SOUTHERN LAKE MICHIGAN

STATION/POSITION SKY/WX   TEMP    WIND        PRES    VSBY  WAVE
                          AIR SEA DIR/SP/G                  HT/PER
                          (F)     (DEG/KT/KT) (MB)    (MI)  (FT/S)
HARRISON CRIB              41     100/ 15/ 15   N/A
BURNHAM HARBOR             42      CALM  /  7   N/A
CALUMET HARBOR             52     170/  6/ 10 1018.2S
BURNS HARBOR               52     170/  8/ 13 1019.6F
MICHIGAN CITY              51     130/  9/ 10   N/A
$$

ILZ025>027-034>036-040-047-049-050-058-095>099-272300-
WEST-CENTRAL ILLINOIS

CITY           SKY/WX    TMP DP  RH WIND       PRES   REMARKS
QUINCY         MOSUNNY   60  28  29 SE9       29.97F
GALESBURG*     CLOUDY    55  32  40 S10       30.00F
MACOMB*        MOSUNNY   58  29  33 S7        30.02S
JACKSONVILLE*  SUNNY     59  32  36 S10       30.01S
PITTSFIELD*    SUNNY     61  33  34 S9        30.00F
$$

ILZ028>032-037-038-041>044-048-051>054-059>061-272300-
CENTRAL ILLINOIS

CITY           SKY/WX    TMP DP  RH WIND       PRES   REMARKS
PONTIAC        SUNNY     56  34  43 S8        30.06S
BLOOMINGTON    MOSUNNY   57  35  43 S15       30.04F
DECATUR        MOSUNNY   58  36  43 S15G21    30.04F
PEORIA         SUNNY     57  32  38 S9        30.02F
LACON*         MOSUNNY   56  32  40 S7        30.03S
LINCOLN*       MOSUNNY   59  36  41 S7        30.03F
SPRINGFIELD    SUNNY     61  34  36 S12       30.03F
TAYLORVILLE    MOSUNNY   59  38  44 S13       30.04S
$$

ILZ033-039-045-046-055>057-062-063-272300-
EAST-CENTRAL ILLINOIS

CITY           SKY/WX    TMP DP  RH WIND       PRES   REMARKS
CHAMPAIGN      MOSUNNY   58  36  43 SE13      30.06F
RANTOUL*       MOSUNNY   57  37  47 S9        30.07F
MATTOON        MOSUNNY   57  41  55 S9        30.06F
PARIS*         MOSUNNY   55  42  61 SE15G24   30.10F
$$

ILZ079-100>102-272300-
SOUTHWEST ILLINOIS

CITY           SKY/WX    TMP DP  RH WIND       PRES   REMARKS
ALTON          SUNNY     61  39  44 SE12      30.02F
BELLEVILLE     SUNNY     65  41  41 VRB7G21   30.01F
CAHOKIA*       SUNNY     66  38  35 SE13      30.01F
SPARTA*        SUNNY     62  43  50 S9        30.05S
$$

ILZ064>066-069>071-074>076-080>082-084>086-088>090-092>094-272300-
SOUTH-CENTRAL ILLINOIS

CITY           SKY/WX    TMP DP  RH WIND       PRES   REMARKS
CARBONDALE     SUNNY     62  47  57 S9        30.05F
CAIRO*         SUNNY     63  48  58 SE8       30.06F
EFFINGHAM*     MOSUNNY   59  45  60 SE15      30.09S
MARION         MOSUNNY   64  46  52 S9        30.07F
MT. VERNON     SUNNY     61  46  57 S12       30.07F
CENTRALIA*     MOSUNNY   62  45  53 SE9       30.05S
SALEM*         SUNNY     60  42  51 SE8       30.06F
METROPOLIS*    MOSUNNY   65  47  53 S8        30.08S
$$

ILZ067-068-072-073-078-083-087-091-272300-
SOUTHEAST ILLINOIS

CITY           SKY/WX    TMP DP  RH WIND       PRES   REMARKS
LAWRENCEVILLE  CLOUDY    55  44  66 S10       30.12F
FLORA*         PTSUNNY   61  46  56 S13       30.09F
FAIRFIELD*     PTSUNNY   59  46  62 SE8       30.08F
HARRISBURG*    MOSUNNY   61  47  61 S7        30.09S
ROBINSON*      PTSUNNY   54  43  67 S10       30.13S
CARMI*         MOSUNNY   59  47  63 S9        30.10S
$$

ABBREVIATIONS USED IN REMARKS
   TC - TEMPERATURE IN CELSIUS
  WCI - WIND CHILL INDEX
   HX - HEAT INDEX
  VSB - VISIBILITY
$$




USA.gov is the U.S. government's official web portal to all federal, state and local government web resources and services.